• In Netherlands
  • List of Countries
  • For 7 days
  • Water Temperature
  • Satellite Maps
  • Weather Map
  • Weather Widgets
  • user-avatar
    Login

    Hourly Weather Rangpur

    Today, 24 March, Friday

    Time Temperature Precipitation Wind Pressure Humidity
    00:00 +26°C° 0 mm 2 mps 755 mmHg 56%
    01:00 +26°C° 0 mm 2 mps 754 mmHg 57%
    02:00 +25°C° 0 mm 2 mps 754 mmHg 58%
    03:00 +25°C° 0 mm 2 mps 754 mmHg 60%
    04:00 +24°C° 0 mm 2 mps 754 mmHg 61%
    05:00 +24°C° 0 mm 1 mps 754 mmHg 63%
    06:00 +24°C° 0 mm 2 mps 754 mmHg 66%
    07:00 +26°C° 0 mm 2 mps 754 mmHg 61%
    08:00 +27°C° 0 mm 2 mps 755 mmHg 55%
    09:00 +29°C° 0 mm 3 mps 755 mmHg 49%
    10:00 +31°C° 0 mm 2 mps 755 mmHg 45%
    11:00 +32°C° 0 mm 2 mps 755 mmHg 42%
    12:00 +35°C° 0 mm 2 mps 755 mmHg 38%
    13:00 +35°C° 0 mm 2 mps 754 mmHg 38%
    14:00 +35°C° 0 mm 2 mps 753 mmHg 38%
    15:00 +35°C° 0 mm 2 mps 753 mmHg 37%
    16:00 +34°C° 0 mm 2 mps 753 mmHg 40%
    17:00 +32°C° 0 mm 2 mps 752 mmHg 43%
    18:00 +32°C° 0 mm 1 mps 752 mmHg 46%
    19:00 +31°C° 0 mm 2 mps 753 mmHg 48%
    20:00 +30°C° 0 mm 2 mps 753 mmHg 50%
    21:00 +29°C° 0 mm 2 mps 753 mmHg 52%
    22:00 +28°C° 0.1 mm 2 mps 753 mmHg 54%
    23:00 +27°C° 0.1 mm 2 mps 753 mmHg 57%

    Tomorrow, 25 March, Saturday

    Time Temperature Precipitation Wind Pressure Humidity
    00:00 +27°C° 0.1 mm 2 mps 753 mmHg 60%
    01:00 +26°C° 0.1 mm 3 mps 753 mmHg 62%
    02:00 +26°C° 0.1 mm 3 mps 753 mmHg 64%
    03:00 +25°C° 0.1 mm 3 mps 753 mmHg 67%
    04:00 +25°C° 0.1 mm 3 mps 753 mmHg 70%
    05:00 +24°C° 0.1 mm 3 mps 753 mmHg 73%
    06:00 +24°C° 0.1 mm 3 mps 753 mmHg 76%
    07:00 +25°C° 0.3 mm 3 mps 753 mmHg 74%
    08:00 +26°C° 0.3 mm 3 mps 754 mmHg 71%
    09:00 +27°C° 0.3 mm 3 mps 754 mmHg 68%
    10:00 +29°C° 0.2 mm 3 mps 754 mmHg 64%
    11:00 +30°C° 0.2 mm 3 mps 754 mmHg 60%
    12:00 +31°C° 0.2 mm 3 mps 754 mmHg 56%
    13:00 +33°C° 0 mm 3 mps 753 mmHg 52%
    14:00 +35°C° 0 mm 2 mps 752 mmHg 47%
    15:00 +35°C° 0 mm 1 mps 751 mmHg 43%
    16:00 +35°C° 0 mm 2 mps 751 mmHg 47%
    17:00 +34°C° 0 mm 2 mps 751 mmHg 50%
    18:00 +33°C° 0 mm 3 mps 751 mmHg 53%
    19:00 +30°C° 0 mm 3 mps 752 mmHg 57%
    20:00 +29°C° 0 mm 4 mps 753 mmHg 60%
    21:00 +28°C° 0 mm 4 mps 753 mmHg 64%
    22:00 +28°C° 0 mm 4 mps 754 mmHg 66%
    23:00 +27°C° 0 mm 4 mps 754 mmHg 67%

    Day after tomorrow, 26 March, Sunday

    Time Temperature Precipitation Wind Pressure Humidity
    00:00 +26°C° 0 mm 4 mps 754 mmHg 68%
    01:00 +26°C° 0 mm 4 mps 754 mmHg 70%
    02:00 +25°C° 0 mm 3 mps 754 mmHg 73%
    03:00 +25°C° 0 mm 3 mps 753 mmHg 75%
    04:00 +24°C° 0 mm 3 mps 754 mmHg 77%
    05:00 +24°C° 0 mm 3 mps 754 mmHg 79%
    06:00 +24°C° 0 mm 3 mps 754 mmHg 81%
    07:00 +25°C° 0 mm 3 mps 755 mmHg 76%
    08:00 +27°C° 0 mm 4 mps 756 mmHg 70%
    09:00 +28°C° 0 mm 4 mps 756 mmHg 65%
    10:00 +29°C° 0 mm 4 mps 756 mmHg 61%
    11:00 +31°C° 0 mm 3 mps 756 mmHg 56%
    12:00 +33°C° 0 mm 3 mps 756 mmHg 52%
    13:00 +34°C° 0 mm 2 mps 755 mmHg 49%
    14:00 +35°C° 0 mm 2 mps 754 mmHg 45%
    15:00 +36°C° 0 mm 2 mps 753 mmHg 42%
    16:00 +35°C° 0 mm 2 mps 753 mmHg 45%
    17:00 +33°C° 0 mm 1 mps 753 mmHg 48%
    18:00 +32°C° 0 mm 1 mps 753 mmHg 51%
    19:00 +31°C° 0.1 mm 2 mps 753 mmHg 53%
    20:00 +30°C° 0.1 mm 3 mps 754 mmHg 56%
    21:00 +29°C° 0.1 mm 4 mps 754 mmHg 59%
    22:00 +28°C° 1.9 mm 4 mps 754 mmHg 64%
    23:00 +27°C° 1.9 mm 3 mps 754 mmHg 70%

    27 March, Monday

    Time Temperature Precipitation Wind Pressure Humidity
    00:00 +25°C° 1.9 mm 3 mps 755 mmHg 75%
    01:00 +25°C° 0.2 mm 3 mps 754 mmHg 77%
    02:00 +25°C° 0.2 mm 4 mps 754 mmHg 78%
    03:00 +25°C° 0.2 mm 4 mps 754 mmHg 80%
    04:00 +23°C° 0.2 mm 4 mps 754 mmHg 82%
    05:00 +23°C° 0.2 mm 4 mps 754 mmHg 85%
    06:00 +22°C° 0.2 mm 3 mps 755 mmHg 87%
    07:00 +25°C° 0.4 mm 4 mps 755 mmHg 81%
    08:00 +26°C° 0.4 mm 4 mps 756 mmHg 76%
    09:00 +27°C° 0.4 mm 4 mps 757 mmHg 71%
    10:00 +29°C° 0 mm 4 mps 756 mmHg 65%
    11:00 +30°C° 0 mm 3 mps 756 mmHg 59%
    12:00 +33°C° 0 mm 3 mps 756 mmHg 53%
    13:00 +33°C° 0 mm 3 mps 755 mmHg 52%
    14:00 +34°C° 0 mm 3 mps 754 mmHg 51%
    15:00 +34°C° 0 mm 3 mps 753 mmHg 50%
    16:00 +32°C° 0 mm 2 mps 753 mmHg 53%
    17:00 +31°C° 0 mm 2 mps 753 mmHg 56%
    18:00 +31°C° 0 mm 1 mps 753 mmHg 59%
    19:00 +30°C° 0 mm 2 mps 754 mmHg 62%
    20:00 +29°C° 0 mm 2 mps 755 mmHg 65%
    21:00 +28°C° 0 mm 2 mps 756 mmHg 67%
    22:00 +27°C° 0 mm 2 mps 756 mmHg 68%
    23:00 +26°C° 0 mm 2 mps 756 mmHg 69%

    28 March, Tuesday

    Time Temperature Precipitation Wind Pressure Humidity
    00:00 +26°C° 0 mm 2 mps 756 mmHg 69%
    01:00 +25°C° 0 mm 2 mps 755 mmHg 70%
    02:00 +25°C° 0 mm 2 mps 755 mmHg 71%
    03:00 +25°C° 0 mm 2 mps 754 mmHg 72%
    04:00 +24°C° 0.1 mm 2 mps 754 mmHg 73%
    05:00 +24°C° 0.1 mm 2 mps 755 mmHg 74%
    06:00 +24°C° 0.1 mm 3 mps 755 mmHg 75%
    07:00 +25°C° 0.3 mm 3 mps 756 mmHg 70%
    08:00 +27°C° 0.3 mm 3 mps 756 mmHg 65%
    09:00 +28°C° 0.3 mm 3 mps 757 mmHg 61%
    10:00 +30°C° 0.1 mm 3 mps 756 mmHg 57%
    11:00 +31°C° 0.1 mm 3 mps 756 mmHg 53%
    12:00 +34°C° 0.1 mm 4 mps 756 mmHg 49%
    13:00 +34°C° 0 mm 3 mps 755 mmHg 48%
    14:00 +35°C° 0 mm 3 mps 754 mmHg 47%
    15:00 +35°C° 0 mm 3 mps 753 mmHg 47%
    16:00 +34°C° 0 mm 3 mps 753 mmHg 51%
    17:00 +33°C° 0 mm 3 mps 753 mmHg 56%
    18:00 +31°C° 0 mm 2 mps 753 mmHg 60%
    19:00 +30°C° 0.2 mm 2 mps 753 mmHg 64%
    20:00 +29°C° 0.2 mm 2 mps 754 mmHg 68%
    21:00 +28°C° 0.2 mm 2 mps 755 mmHg 72%
    22:00 +27°C° 1 mm 2 mps 755 mmHg 75%
    23:00 +27°C° 1 mm 2 mps 755 mmHg 78%

    29 March, Wednesday

    Time Temperature Precipitation Wind Pressure Humidity
    00:00 +26°C° 1 mm 2 mps 755 mmHg 82%
    01:00 +25°C° 0.4 mm 2 mps 754 mmHg 83%
    02:00 +25°C° 0.4 mm 2 mps 754 mmHg 84%
    03:00 +25°C° 0.4 mm 2 mps 754 mmHg 86%
    04:00 +24°C° 0.9 mm 2 mps 754 mmHg 87%
    05:00 +24°C° 0.9 mm 3 mps 754 mmHg 89%
    06:00 +24°C° 0.9 mm 3 mps 755 mmHg 91%
    07:00 +25°C° 0.9 mm 3 mps 755 mmHg 86%
    08:00 +26°C° 0.9 mm 3 mps 756 mmHg 82%
    09:00 +28°C° 0.9 mm 4 mps 757 mmHg 78%
    10:00 +29°C° 0.3 mm 3 mps 756 mmHg 71%
    11:00 +31°C° 0.3 mm 3 mps 756 mmHg 64%
    12:00 +33°C° 0.3 mm 3 mps 756 mmHg 58%
    13:00 +33°C° 0.4 mm 3 mps 755 mmHg 56%
    14:00 +34°C° 0.4 mm 3 mps 754 mmHg 55%
    15:00 +34°C° 0.4 mm 3 mps 753 mmHg 53%
    16:00 +33°C° 0 mm 3 mps 753 mmHg 58%
    17:00 +31°C° 0 mm 2 mps 754 mmHg 62%
    18:00 +30°C° 0 mm 2 mps 754 mmHg 66%
    19:00 +29°C° 0.1 mm 2 mps 754 mmHg 70%
    20:00 +28°C° 0.1 mm 2 mps 755 mmHg 74%
    21:00 +28°C° 0.1 mm 2 mps 755 mmHg 78%
    22:00 +27°C° 1.7 mm 2 mps 755 mmHg 80%
    23:00 +27°C° 1.7 mm 2 mps 755 mmHg 81%
    Show more